Location: Gouzens
(43.1855°N, 1.1888°E)
Time: 05:24:57
(UTC+00:00)

Daily predictions for brighter satellites

Satellite Brightness Start Highest point End
(mag) Time Altitude Azimuth Time Altitude Azimuth Time Altitude Azimuth
Cosmos 2333 Rocket 4.5 01:25:50 19° ENE 01:25:50 19° ENE 01:27:44 10° NE
Resurs 1-4 Rocket 4.5 01:22:34 10° NNE 01:23:55 18° NNE 01:23:55 18° NNE
Cosmos 2360 Rocket 4.2 01:35:08 24° NE 01:35:08 24° NE 01:37:16 10° NNE
Cosmos 2219 Rocket 4.0 01:53:02 27° ENE 01:53:02 27° ENE 01:55:56 10° NE
ADEOS II 4.1 01:45:52 10° NNE 01:48:05 25° NNE 01:48:05 25° NNE
CZ-2D R/B 4.1 01:57:16 10° N 01:59:12 23° N 01:59:12 23° N
SL-16 R/B 4.1 02:08:10 22° N 02:08:10 22° N 02:10:32 10° N
Cosmos 2278 Rocket 4.4 02:04:30 10° N 02:08:51 22° NE 02:13:11 10° E
ATLAS 3B R/B 4.4 02:09:09 21° NNW 02:09:25 21° NNW 02:14:28 10° NNE
SL-16 R/B 4.3 02:18:17 20° NNW 02:18:17 20° NNW 02:20:08 10° NNW
USA 229 DEB 4.0 02:17:34 57° ENE 02:17:34 57° ENE 02:23:06 10° NE
USA 229 4.0 02:17:39 57° ENE 02:17:39 57° ENE 02:23:12 10° NE
COSMOS 2428 3.5 02:26:57 48° ENE 02:26:57 48° ENE 02:31:18 10° NNE
IDEFIX/ARIANE 42P 3.5 02:31:35 10° NNE 02:35:12 45° NNE 02:35:12 45° NNE
NOSS 3-1 (A) 3.7 02:39:09 59° NNE 02:39:09 59° NNE 02:44:09 10° NE
Cosmos 2322 Rocket 4.0 02:44:11 20° NNW 02:44:11 20° NNW 02:46:53 10° N
Cosmos 2237 Rocket 3.5 02:49:49 29° SE 02:51:20 34° ESE 02:56:24 10° NE
Meteor 2-16 Rocket 4.4 02:48:33 10° N 02:54:44 78° E 02:55:48 62° SSE
Cosmos 1850 Rocket 4.5 02:50:31 10° NNW 02:55:43 59° ENE 03:00:56 10° SSE
CZ-2C R/B 4.1 02:52:31 10° NNE 02:57:08 31° E 02:59:51 20° SE
Meteor 2-21 Rocket 4.3 02:51:56 10° N 02:57:52 82° NW 02:57:52 82° NW
Meteor 1-25 Rocket 4.2 03:00:29 10° N 03:06:23 88° E 03:07:23 63° SSE
Cosmos 2333 Rocket 2.8 03:07:52 42° NW 03:07:52 42° NW 03:12:29 10° NNE
Resurs 1-4 Rocket 4.2 03:03:43 10° NNW 03:04:58 14° NNW 03:04:58 14° NNW
ATLAS 5 CENTAUR R/B 3.7 03:09:52 17° NNW 03:09:52 17° NNW 03:11:58 10° N
MSX 3.7 03:03:32 10° N 03:09:17 73° WNW 03:09:17 73° WNW
Cosmos 1782 3.9 03:11:03 41° NE 03:11:03 41° NE 03:13:50 10° NNE
Cosmos 1812 4.1 03:14:44 33° ESE 03:15:13 34° E 03:18:44 10° NNE
Cosmos 2180 Rocket 4.3 03:15:39 67° WSW 03:16:08 70° W 03:22:20 10° N
Cosmos 2360 Rocket 3.8 03:16:54 21° NW 03:16:54 21° NW 03:20:27 10° N
Cosmos 1500 4.3 03:14:33 10° N 03:17:21 41° NE 03:17:21 41° NE
IRS-1C 4.0 03:13:24 10° NNE 03:18:45 87° WNW 03:19:22 71° SSW
ALOS 3.8 03:15:04 10° NNE 03:19:16 33° E 03:23:00 12° SSE
Cosmos 1452 Rocket 3.6 03:19:36 62° NW 03:19:36 62° NW 03:24:31 10° NNE
Cosmos 1655 Rocket 3.9 03:14:15 10° N 03:20:30 89° W 03:25:30 17° S
NOSS 3-1 (C) 4.3 03:22:29 30° NW 03:23:03 30° NW 03:28:36 10° NNE
Cosmos 1340 Rocket 3.0 03:22:38 10° N 03:26:28 67° ENE 03:26:28 67° ENE
ARIANE 5 R/B 2.3 03:22:39 10° NNE 03:27:46 88° WNW 03:28:42 60° SSW
CZ-4C R/B 3.7 03:25:35 16° SSE 03:28:25 27° ESE 03:32:55 10° NE
ADEOS II 3.7 03:26:24 10° NNW 03:29:01 20° NW 03:29:01 20° NW
SL-08 R/B 3.1 03:28:30 35° SSE 03:30:25 88° ENE 03:35:04 10° NNW
Cosmos 1331 Rocket 3.9 03:31:59 50° S 03:33:22 84° ESE 03:38:34 10° NNE
Cosmos 2279 Rocket 4.5 03:34:11 39° WNW 03:34:11 39° WNW 03:39:59 10° N
Cosmos 2219 Rocket 3.0 03:34:45 33° NW 03:34:46 33° NW 03:39:49 10° N
FENGYUN 3A 4.2 03:30:45 10° NNE 03:36:04 56° E 03:41:00 12° S
Cosmos 1666 Rocket 3.4 03:34:10 10° N 03:38:31 87° E 03:40:36 30° S
Cosmos 1328 Rocket 3.8 03:39:10 30° S 03:41:13 66° E 03:45:31 10° NNE
STPSAT 2 (USA 217) 4.5 03:41:50 61° SW 03:42:36 83° WNW 03:47:10 10° NNE
Meteor 2-15 Rocket 4.4 03:39:18 20° S 03:43:43 89° E 03:49:51 10° N
Cosmos 2266 Rocket 3.9 03:40:27 10° NNW 03:46:31 62° W 03:52:27 10° S
Cosmos 2278 Rocket 2.1 03:47:48 10° NNW 03:53:27 66° WSW 03:59:03 10° SSE
NOSS 2-2 (D) 3.1 03:55:52 55° NW 03:55:52 55° NW 03:59:22 10° NNE
Cosmos 44 3.6 03:54:25 40° WSW 03:56:14 61° NW 04:01:35 10° NNE
NOSS 0 Rocket 4.0 03:55:13 34° WSW 03:57:51 58° WNW 04:04:00 10° NNE
SL-16 R/B 3.4 03:53:34 10° S 03:58:49 41° ESE 04:04:06 10° NE
Spot 4 Rocket 3.9 03:54:49 10° NNE 03:59:58 79° WNW 04:03:44 19° SSW
Cosmos 1943 Rocket 3.9 03:55:40 10° N 04:00:49 34° NE 04:05:55 10° ESE
Meteor 1-5 Rocket 4.0 03:55:49 10° N 04:01:10 90° ESE 04:06:28 10° S
Cosmos 1666 2.5 03:57:37 10° N 04:01:25 88° WSW 04:05:12 10° S
Cosmos 1151 Rocket 3.2 04:02:58 39° WSW 04:04:04 50° WNW 04:08:20 10° N
GPS 2-04 Rocket1 4.2 04:06:00 21° S 04:06:52 23° SSE 04:10:01 10° ESE
Cosmos 968 Rocket 4.2 04:02:36 10° NNW 04:07:47 56° ENE 04:12:53 10° SE
CZ-2D R/B 4.0 04:04:12 10° N 04:08:21 42° WNW 04:09:28 35° WSW
COSMOS 2428 3.9 04:08:59 22° WNW 04:10:23 24° NW 04:14:57 10° N
NOSS 2-2 (E) 4.0 04:12:26 28° WNW 04:12:49 29° NW 04:16:05 10° NNE
IDEFIX/ARIANE 42P 4.3 04:12:57 10° NNW 04:15:45 15° WNW 04:16:00 15° WNW
X-37B 2.8 04:18:17 13° S 04:19:59 19° SE 04:22:20 10° E
Cosmos 2285 Rocket 4.2 04:16:42 20° SW 04:20:59 51° WNW 04:27:09 10° NNE
Cosmos 1633 Rocket 3.5 04:18:11 10° NNW 04:22:17 38° W 04:26:22 10° SSW
Cosmos 1244 Rocket 4.5 04:16:48 10° N 04:23:06 87° W 04:29:17 10° S
MOS 1 Rocket 3.7 04:19:13 10° SSW 04:23:29 36° W 04:27:36 10° NNW
Cosmos 1536 4.1 04:21:16 10° N 04:25:05 43° ENE 04:28:52 10° SSE
Cosmos 1980 4.2 04:22:15 22° WSW 04:25:26 41° WNW 04:30:47 10° NNE
CZ-4B R/B 4.1 04:23:11 10° N 04:27:50 36° WNW 04:31:14 17° SW
Cosmos 1515 Rocket 3.4 04:24:53 10° SSW 04:29:11 67° W 04:33:31 10° N
Cosmos 2237 Rocket 2.8 04:31:41 18° WSW 04:35:19 38° WNW 04:40:36 10° N
CZ-2C R/B 3.2 04:30:39 10° N 04:35:19 34° WNW 04:39:13 14° SW
Cosmos 1486 Rocket 4.5 04:32:52 10° NNW 04:38:12 68° ENE 04:43:30 10° SSE
Meteor 1-27 Rocket 4.0 04:35:30 10° S 04:41:19 80° E 04:47:17 10° NNE
BREEZE M DEB (TANK) 3.8 04:42:12 10° SSW 04:42:12 10° SSW 04:42:12 10° SSW
METEOR-M 4.3 04:41:59 10° N 04:47:13 55° WNW 04:52:24 10° SSW
S3M 4.3 04:41:45 10° S 04:48:05 75° E 04:54:24 10° N
Cosmos 1812 4.4 04:49:49 14° W 04:51:06 16° WNW 04:53:35 10° NNW
Aureole 1 Rocket 3.9 04:47:26 10° NW 04:51:18 26° W 04:54:27 10° SSW
Envisat 3.9 04:48:28 10° NNE 04:53:27 53° E 04:58:24 10° S
CZ-2C R/B 3.9 04:51:06 10° NNW 04:54:26 26° WNW 04:57:41 10° SW
BREEZE-M DEB (TANK) 4.1 04:51:18 10° SSW 04:55:32 23° SSE 04:57:49 10° E
ALOS 3.3 04:52:37 10° N 04:56:32 27° WNW 05:00:27 10° SW
CENTAUR R/B 4.0 04:49:51 10° NNW 04:57:48 55° NE 05:06:32 10° ESE
Gbstr 26 Del rocket 4.4 04:54:39 10° WNW 05:02:00 54° SW 05:08:10 10° SSE
CZ-2C R/B 3.5 04:58:33 10° SSE 05:03:36 55° ENE 05:08:45 10° N
BREEZE-M DEB (TANK) 3.8 05:01:48 10° WNW 05:04:16 19° NNW 05:06:18 10° NNE
SKYMED 2 3.8 05:00:39 10° SSE 05:04:59 77° ENE 05:09:20 10° N
Cosmos 1515 3.8 05:02:16 10° S 05:06:03 80° E 05:09:53 10° N
ARIANE 5 R/B 4.4 05:03:59 10° NNW 05:06:04 13° WNW 05:08:08 10° W
YAOGAN 6 2.7 05:03:21 10° NNE 05:06:53 75° ESE 05:10:21 10° S
SJ 16-02 4.2 05:06:59 10° NNE 05:10:12 19° ENE 05:13:24 10° ESE
Cosmos 1743 2.7 05:08:24 10° N 05:12:19 80° W 05:16:10 10° S
Cosmos 1869 Rocket 3.5 05:08:41 10° NNW 05:13:05 69° W 05:17:29 10° S
Cosmos 1484 Rocket 3.9 05:10:32 10° NNW 05:13:29 22° WNW 05:16:24 10° WSW
NOSS 3-2 (A) 4.4 05:05:57 10° NW 05:13:33 76° NE 05:22:11 10° SE
Cosmos 1933 Rocket 4.4 05:10:09 10° NNW 05:13:56 29° W 05:17:45 10° SSW
Meteor 2-17 Rocket 4.5 05:09:25 10° NNW 05:15:31 65° W 05:21:34 10° S
CZ-4C R/B 2.5 05:11:48 10° WSW 05:16:29 45° NW 05:22:09 10° NNE
